Cloud_Cover
5 5 36 31 47 39 23 85 73 9 0 0 1 5 9 4 0 0 0 0 0 5 8 94 26 32 39 45 100 100 100 100 100 100 98 100 98 100 100 98 100 100 100 100
35 5 18 13 3 0 5 2 0 0 2 3 12 5 5 4 0 20 70 4 5 5 6 17 84 5 5 91 91 100 100 100 100 100 100 100 100 99 100 100 100 100 100 100
33 6 45 5 0 2 0 0 0 0 3 0 1 0 0 0 2 1 3 5 5 5 5 5 5 5 5 35 94 100 100 100 100 100 100 100 100 100 100 100 100 100 100 100
7 14 58 3 5 5 2 1 2 5 4 0 0 0 0 5 5 5 5 38 90 100 7 5 5 5 39 94 100 100 100 100 100 99 100 100 100 100 100 100 100 100 100 100
5 5 6 5 5 5 5 5 5 5 0 2 4 5 5 4 5 5 5 49 35 5 5 5 7 62 86 55 41 94 100 100 100 100 100 100 100 100 100 100 100 100 100 100
47 5 5 13 26 5 5 5 5 5 5 5 5 5 5 5 6 21 6 5 5 5 17 50 53 100 49 12 78 84 89 90 100 100 100 100 100 100 100 100 100 100 100 100
60 35 5 89 5 5 5 5 13 7 54 44 5 5 5 5 5 56 33 7 22 100 100 100 100 86 94 100 99 100 100 100 100 100 100 100 100 100 100 100 100 100 100 100
54 84 39 44 77 7 6 5 5 5 5 5 5 5 6 5 5 24 61 98 100 100 100 85 87 100 100 100 100 99 100 100 94 94 99 100 100 100 100 100 100 100 100 41
12 12 23 99 91 85 5 5 5 9 6 5 5 5 5 48 100 100 100 100 100 100 99 100 100 100 100 78 100 100 100 99 100 100 100 100 100 100 100 57 6 5 5 5
5 8 100 100 66 5 5 6 42 86 63 96 100 47 60 100 100 100 100 100 100 100 94 87 96 96 82 98 100 97 99 100 93 65 87 52 34 1 0 5 5 6 11 5
5 6 29 87 39 8 5 5 30 93 100 99 72 85 100 100 100 100 100 100 99 96 89 83 72 83 91 99 100 100 82 98 98 32 5 0 0 0 2 5 18 95 78 10
60 38 21 15 93 99 62 92 100 85 60 63 100 100 100 100 100 100 100 100 92 73 6 5 51 100 100 100 100 100 100 98 35 2 0 0 0 0 5 94 97 26 46 98
8 28 95 60 43 58 85 71 72 94 100 100 100 100 100 100 100 87 87 12 5 23 33 98 100 100 100 100 100 64 66 7 0 1 5 5 5 32 82 6 6 5 5 62
71 88 96 78 46 61 42 36 46 100 100 100 100 100 100 91 28 5 17 44 81 91 100 100 100 100 100 91 37 5 2 3 5 5 5 7 48 79 82 100 47 5 5 5
5 5 20 65 65 89 100 100 100 100 100 100 100 98 57 47 29 88 100 100 100 100 100 100 100 73 63 9 24 25 26 72 91 73 18 14 58 96 80 53 99 78 52 13
100 78 21 38 80 99 79 84 100 100 100 100 94 94 64 65 84 95 100 100 100 100 100 98 36 40 65 60 4 1 2 5 5 5 5 5 6 16 48 91 100 100 99 53
66 41 85 99 100 100 81 92 100 100 100 100 100 100 65 100 100 100 100 100 100 98 60 11 5 5 0 2 2 5 12 73 79 95 5 5 10 58 99 100 99 66 92 65
100 100 98 100 100 100 100 100 100 100 100 100 100 100 100 100 98 100 100 92 100 21 5 5 5 2 3 6 47 76 7 5 38 54 63 67 60 89 100 100 100 99 87 100
100 100 100 100 100 100 100 100 100 100 100 100 100 100 100 100 100 100 100 92 31 5 22 5 3 14 70 74 12 5 5 53 74 88 99 99 100 100 96 97 100 100 88 100
100 100 100 100 100 100 100 100 100 100 100 100 100 100 100 100 100 89 36 7 92 73 4 2 68 70 10 5 46 97 100 99 100 100 100 99 100 100 100 100 100 100 100 100
100 100 100 100 100 100 100 100 100 100 100 100 100 100 100 100 73 34 5 8 98 20 3 82 81 5 5 68 99 100 88 100 100 100 100 100 98 100 100 100 100 100 100 100
100 100 100 100 100 100 100 100 100 100 100 100 100 100 80 29 6 5 81 63 26 5 17 100 42 22 5 31 89 100 84 100 100 100 100 100 100 100 100 100 100 100 100 100
100 100 100 100 100 100 100 100 100 100 100 100 83 39 5 5 5 50 70 47 5 5 5 96 79 5 5 5 26 87 60 100 100 100 100 100 100 100 100 100 100 100 100 100
100 100 100 100 100 100 100 100 100 100 83 15 5 5 5 24 34 5 5 9 32 5 46 5 37 53 25 14 30 42 39 100 88 100 100 100 100 100 100 100 100 100 100 100
100 100 100 100 100 100 95 68 17 5 5 5 5 5 14 66 42 39 23 13 32 8 44 24 10 64 76 32 61 64 57 100 66 62 96 100 99 100 100 100 100 100 100 100
100 99 86 64 5 37 14 44 43 5 5 31 14 8 88 100 92 16 5 21 22 78 65 54 53 52 53 90 90 80 74 91 5 86 100 26 80 100 100 100 100 100 100 100
89 100 92 88 99 98 64 91 67 16 61 38 5 28 95 100 72 21 12 29 30 79 69 53 65 62 5 84 100 72 64 52 5 80 97 7 52 100 100 100 100 100 100 100